ASTRA 1L

Last updated on Thu Nov 21 2024 00:02:40 GMT+0000 (Coordinated Universal Time)

1 31306U 07016A 24324.51284470 .00000121 00000+0 00000+0 0 9995 2 31306 0.0498 336.5740 0006468 291.8720 354.4088 1.00269859 39225
UTC large
Height (km)
Speed (km/s)
/
Latitude / Longitude
Inclination (degrees)
Orbital Period (minutes)
Azimuth
Elevation
Range (km)
Doppler Factor

Next 0 passes for location: London (51.5072 / 0.1276)

Sorry there are no passes over London.